GFSSGP_con_lsi_117.txt.gz
Lid_Strength_Index
3 3 3 5 10 11 13 12 11 11 10 8 8 8 8 7 8 8 2 1 0 0 -1 -1 -0 -1 -1 -1 -1 -1 -1 -1 -1 -1 -1 -1 -1 -1 -1 -1 -1 -1 -1 -1 -1 -2 -2 -2 -1
4 4 5 8 12 14 13 11 11 9 8 8 7 7 7 6 3 3 3 1 -0 0 -0 -1 -0 -0 -1 -1 -1 -1 -1 -1 -1 -1 -1 -1 -1 -1 -1 -1 -1 -1 -1 -1 -1 -1 -1 -1 -1
4 5 7 9 14 14 13 12 10 9 8 8 8 7 7 5 3 3 1 0 -0 0 -1 -1 -0 -0 -0 -1 -1 -1 -1 -1 -1 -1 -1 -1 -1 -1 -1 -1 -1 -1 -1 -1 -2 -1 -1 -1 -1
5 6 8 12 13 12 12 10 10 9 8 8 8 8 6 3 3 2 1 0 0 0 -1 -0 0 -0 -0 -1 -1 -1 -1 -0 -0 -0 -1 -1 -1 -1 -1 -1 -1 -1 -1 -1 -1 -1 -1 -1 -0
7 8 12 13 13 11 10 10 9 9 8 8 8 8 7 4 1 1 1 0 1 0 -1 -1 0 0 -0 -1 -1 -0 -1 -0 -0 -0 -0 -1 -1 -1 -1 -1 -1 -1 -1 -1 -1 -1 -1 -1 -0
9 8 13 14 13 11 9 8 9 9 8 8 8 8 6 2 2 1 1 1 -0 0 -0 -1 -0 -0 -0 -0 -0 -0 -0 -0 -0 -0 -0 -0 -0 -0 -1 -1 -1 -1 -1 -1 -1 -1 -1 -1 -1
10 11 13 13 13 11 9 7 8 8 8 7 7 8 5 3 1 1 1 0 -0 -0 -0 -0 -1 -1 0 1 0 0 0 -0 -0 -0 0 -0 0 0 -1 -1 -1 -1 -0 -1 -1 -1 -0 -1 -1
8 9 13 13 12 12 9 8 7 8 7 5 6 8 7 4 1 1 1 1 0 0 -0 -0 -0 -1 -1 -1 1 0 0 0 0 0 0 1 0 -0 -0 -0 -0 -1 -1 -1 -1 -1 -0 -1 -0
8 12 13 12 12 11 9 9 6 5 7 5 5 5 4 2 2 2 2 2 1 1 0 -0 -0 0 -1 -0 -1 -0 -0 0 0 -0 0 1 -1 -1 -1 -0 -0 -1 -1 -1 -1 -1 -0 0 0
10 13 13 11 10 11 10 10 9 8 8 7 5 4 3 3 2 3 3 3 3 2 1 1 0 0 0 0 0 -1 -1 -1 -1 -1 -1 -1 -1 -1 -1 -1 -0 -0 -0 -0 -0 -0 0 -0 -1
13 15 13 12 11 12 13 13 10 11 11 8 8 8 7 6 5 2 3 3 2 1 1 1 0 -0 0 -0 -0 1 0 -1 -1 -1 -1 -1 -1 -1 -1 -1 -1 -1 -1 -1 -1 -1 -1 -1 -1
14 12 12 12 11 13 14 13 13 12 11 9 8 7 7 7 7 6 2 3 2 2 1 1 0 0 0 -0 -0 1 0 0 -0 -1 -1 -1 -0 -0 -1 -1 -1 -1 -1 -1 -1 -1 -1 -1 -1
14 13 12 12 13 12 12 13 13 13 11 9 8 8 8 7 7 6 5 1 2 2 1 1 0 1 0 0 0 1 1 1 1 -0 -1 -1 0 0 -1 -1 -1 -1 -1 -1 -1 -1 -1 -1 -1
12 13 13 12 12 11 12 12 12 11 10 10 10 9 9 7 7 6 5 4 2 2 1 1 1 1 0 0 0 0 1 1 0 1 -0 -1 -0 0 -0 -0 -0 -1 -1 -0 -1 -1 -1 -1 -1
12 14 13 12 12 12 11 14 13 11 10 11 11 10 9 8 7 6 6 5 3 1 1 1 1 0 0 0 0 1 1 -0 -0 -0 -0 -0 -0 0 1 -0 -0 -1 -1 0 -1 -1 -1 -0 -1
13 13 16 13 12 12 12 16 12 10 11 11 11 10 10 9 8 7 5 5 4 1 1 1 1 0 0 0 0 0 -0 -0 -0 -0 0 0 -0 -0 0 1 0 -1 0 0 -0 0 0 0 -0
15 17 16 15 12 12 12 15 12 10 10 11 10 10 10 9 7 6 5 5 4 2 1 1 1 1 1 0 0 -0 -0 -0 -0 -1 -0 1 -0 -0 0 1 1 0 0 1 0 1 0 1 0
17 17 16 17 14 12 13 13 11 11 9 10 9 9 9 10 8 6 5 4 4 3 1 1 1 1 0 0 0 0 0 0 -0 -0 -0 -0 -0 -0 0 0 1 1 1 2 1 1 0 0 0
14 15 16 14 11 12 12 11 10 7 8 8 8 8 9 9 8 6 3 3 4 2 1 2 2 1 1 1 2 2 2 1 1 -0 -0 -0 -0 -0 -0 1 1 1 1 2 1 1 1 1 0
13 14 14 12 10 10 11 11 8 7 7 7 7 7 7 8 8 6 4 5 5 5 4 2 2 1 1 1 1 1 1 1 1 0 -0 -0 -1 -0 0 1 1 1 2 2 2 1 2 1 1
12 14 13 13 11 10 11 12 10 8 7 7 6 6 5 5 6 6 6 6 5 7 6 7 2 1 1 1 1 1 1 1 1 1 1 0 -0 -0 -0 0 1 1 1 1 2 2 1 3 1
14 11 12 13 13 16 10 18 11 9 9 8 8 8 8 7 6 6 7 7 7 8 7 5 6 2 1 1 2 2 2 3 2 1 1 1 -0 -0 -0 -0 0 0 1 1 1 2 1 1 3
12 10 11 11 13 14 13 16 13 10 12 11 11 9 8 8 7 8 9 8 8 9 8 7 5 9 7 3 1 2 2 2 1 1 1 1 1 0 -0 0 0 0 0 0 1 1 1 1 1
9 11 11 11 13 18 14 15 14 14 13 12 12 10 9 9 8 9 9 9 9 10 9 8 8 9 9 8 7 3 2 2 2 2 2 2 1 1 0 0 0 0 0 0 0 0 1 1 1
10 12 17 17 18 18 14 16 15 12 12 12 13 12 10 9 9 10 11 11 11 11 11 9 8 9 9 8 8 7 7 5 2 2 2 2 2 1 1 1 1 1 0 0 0 0 1 1 1
11 12 17 22 20 18 14 18 16 11 12 12 12 13 12 11 11 10 11 11 12 12 12 12 10 9 9 8 8 7 7 7 6 1 2 2 2 1 1 1 1 1 1 1 1 1 1 1 1
12 14 10 16 15 18 17 14 12 12 13 13 13 14 14 13 12 12 12 12 12 12 12 13 13 11 11 10 10 8 8 7 6 6 2 1 1 1 1 1 1 1 2 2 2 2 1 1 1
10 9 16 15 21 21 18 17 17 16 15 15 15 15 15 13 13 12 13 13 13 13 12 12 12 12 12 12 11 10 9 9 7 5 5 2 2 1 1 1 1 2 2 2 2 2 1 1 1
11 13 14 14 15 20 21 18 13 14 14 15 15 15 15 14 14 14 13 13 13 13 13 13 13 12 12 11 11 10 10 9 8 7 5 6 1 2 2 1 1 1 2 2 2 2 1 1 1
10 12 13 17 18 16 17 18 12 12 13 14 15 15 14 14 14 15 14 14 14 14 14 14 14 13 13 12 11 11 11 10 9 9 8 7 7 1 1 1 1 2 1 1 2 2 2 2 2

GFSSGP_con_lsi_123.txt.gz
Lid_Strength_Index
0 1 1 2 7 7 8 7 6 7 7 5 5 6 6 5 6 7 1 0 -0 -0 -1 -1 -0 -0 -1 -1 -1 -1 -1 -1 -1 -1 -1 -1 -1 -1 -1 -1 -1 -1 -1 -1 -1 -1 -1 -1 -1
1 2 2 4 8 9 8 6 7 6 6 5 5 5 6 5 3 2 2 -0 -0 -0 -1 -1 -0 -0 -1 -1 -1 -1 -1 -1 -1 -1 -1 -1 -1 -1 -1 -1 -1 -1 -1 -1 -1 -1 -1 -1 -1
2 2 4 6 7 9 8 6 7 6 6 6 6 5 5 5 3 2 0 -0 -0 -0 -1 -1 -0 -0 -0 -1 -1 -0 -0 -0 -1 -1 -1 -1 -1 -1 -1 -1 -1 -1 -1 -1 -1 -1 -1 -1 -1
3 3 4 8 8 7 6 6 6 6 5 5 5 6 4 3 2 1 -0 -0 -0 -0 -1 1 0 -0 -0 -1 -1 -1 -0 -0 -0 -0 -1 -1 -1 -1 -1 -1 -1 -1 -1 -1 -1 -1 -1 -1 -1
3 4 7 8 8 6 5 5 4 5 5 5 4 5 4 2 0 0 0 -0 0 -0 -1 -1 0 -0 -0 -1 -1 -0 -0 -0 -0 -0 -0 -1 -1 -1 -1 -1 -1 -1 -1 -1 -1 -1 -1 -1 -1
6 5 9 9 8 6 5 4 5 5 4 4 4 4 4 1 1 0 -0 -0 -0 -0 -1 -1 -0 -0 -0 -0 -0 -0 -0 -0 -0 -0 -0 -1 -0 -0 -1 -1 -1 -1 -1 -1 -1 -1 -1 -1 -1
7 8 9 9 8 7 6 4 5 5 5 5 3 5 3 2 1 0 -0 -0 -1 -1 -1 -1 -1 -1 -0 0 0 0 -0 -0 -0 -0 0 -0 -0 -0 -0 -0 -1 -1 -1 -1 -1 -1 -1 -1 -1
7 8 9 9 9 8 6 6 5 6 6 3 3 6 5 2 1 1 1 -0 -0 -0 -1 -1 -1 -1 -1 -1 0 0 0 0 0 0 0 0 0 -0 -0 -0 -0 -0 -0 -1 -1 -1 -1 -1 -0
6 10 11 10 9 8 6 7 5 5 7 6 5 4 3 2 2 2 2 1 -0 0 -0 -1 -1 -1 -1 -1 -1 -0 -0 -0 0 -0 0 1 -1 -1 -1 -1 -0 -0 -0 -0 -1 -1 -0 -0 -0
10 11 11 9 9 9 8 8 8 9 9 8 7 5 5 5 5 5 4 3 2 1 0 -0 -1 -1 -1 -1 -1 -1 -1 -1 -1 -1 -1 -1 -1 -1 -1 -0 0 -0 -0 -0 -0 -0 -0 0 -1
10 12 10 10 9 9 10 9 8 9 10 8 8 7 6 6 6 6 5 4 3 2 1 0 -0 -0 -0 -0 -1 -1 -1 -1 -1 -1 -1 -2 -1 -2 -1 -2 -1 -1 -0 -1 -1 -1 -1 -1 -1
11 9 9 9 9 9 10 9 10 9 9 7 7 6 6 7 7 6 6 5 4 3 2 -0 -0 -0 -0 -0 -0 -0 -0 -1 -0 -1 -1 -1 -0 -1 -1 -0 -1 -1 -1 -1 -1 -1 -1 -1 -1
10 10 9 9 9 9 9 9 9 9 7 6 6 6 6 6 6 6 6 5 4 4 2 -0 -0 -0 -0 -0 -0 -0 -0 -0 -1 -1 -1 -1 -0 -0 -0 -0 -0 -1 -1 -1 -0 -1 -0 -0 -1
9 9 9 9 9 8 9 9 8 7 7 7 7 7 6 6 6 5 5 5 5 3 3 -1 -0 -0 -0 -0 -0 -0 -0 -0 -0 -0 -0 -1 -1 -0 -0 -0 -0 -0 -1 -1 -1 -0 0 -0 -0
9 11 9 8 9 9 8 10 9 7 7 7 7 7 7 6 5 5 5 5 4 4 3 1 -1 -1 0 -0 -0 -0 -0 -0 0 -0 -1 -1 -1 -1 -0 0 0 -0 -1 -1 -1 -0 -1 0 -0
10 9 11 8 8 8 9 12 8 7 7 8 7 7 7 6 6 5 4 4 4 4 4 2 1 -1 0 0 -0 -0 -0 -0 -0 -0 -0 -1 -1 -1 -0 -0 -0 -1 -0 -0 -0 -0 0 0 0
10 12 10 9 7 8 9 11 7 6 7 7 7 6 6 6 5 5 4 4 4 4 3 2 0 -0 -0 -0 0 -0 -0 -0 -0 -0 -0 -0 -0 -1 -0 -0 -0 -1 -0 0 0 0 0 1 1
11 11 10 10 8 8 9 9 8 5 5 6 4 4 4 4 4 4 4 4 4 3 3 2 2 -0 -0 0 0 0 0 0 -0 -0 -0 -0 -0 -0 -0 0 0 -0 0 1 0 1 0 1 1
9 10 10 9 7 9 8 8 7 5 5 5 5 5 4 4 3 2 2 3 3 3 3 3 2 0 0 1 2 1 2 1 0 -0 -0 -0 -0 -0 -0 0 0 0 1 1 1 1 1 1 0
9 10 10 8 8 8 8 8 6 6 6 6 6 6 6 6 6 5 4 2 1 1 1 1 1 1 0 0 1 1 1 1 0 -0 -0 -0 -0 -0 0 0 0 0 1 1 1 1 2 1 1
9 10 9 10 8 7 8 9 8 6 5 6 6 7 7 8 9 7 7 6 3 3 1 2 1 1 0 0 1 1 1 1 1 1 0 0 -0 -0 1 0 0 0 0 1 1 1 1 2 1
10 8 9 9 9 12 8 14 9 8 8 8 8 8 9 9 8 9 9 8 7 6 4 3 2 1 0 0 1 2 2 3 1 1 0 0 -0 -0 0 0 0 0 0 1 1 0 1 1 3
10 7 8 8 10 10 10 12 10 8 11 10 9 10 11 10 10 11 10 9 7 6 7 5 4 1 1 1 2 2 2 1 1 1 1 1 0 0 -0 0 0 1 0 0 1 1 1 1 2
7 8 8 8 10 15 11 12 12 13 13 11 11 11 11 11 11 10 10 9 8 6 6 6 5 3 3 2 1 1 2 2 2 2 2 1 1 0 0 0 0 0 0 1 1 1 1 1 1
8 10 14 14 16 16 10 12 14 11 11 12 12 12 12 11 12 11 12 12 10 9 8 7 6 6 6 5 6 5 2 2 2 3 2 2 2 1 1 0 0 1 0 0 0 1 1 1 1
9 9 14 19 17 15 10 15 14 9 9 10 11 12 12 12 12 13 13 12 12 11 10 8 8 8 8 7 7 7 7 4 4 4 3 2 2 1 0 0 0 0 0 0 0 1 1 0 1
9 11 9 14 12 17 14 13 11 10 11 12 13 13 13 13 13 14 14 13 13 13 13 10 9 10 10 10 8 9 8 7 5 4 2 4 4 2 1 0 1 1 0 1 1 1 1 1 1
8 7 13 14 20 20 15 17 16 14 14 13 14 14 14 13 13 14 14 14 14 14 13 11 10 11 11 11 10 9 10 9 8 7 6 7 6 5 5 1 1 1 1 1 1 1 1 1 1
9 11 11 12 13 18 19 18 13 14 14 14 14 14 14 14 14 15 15 14 14 14 14 12 11 11 12 12 12 11 11 10 10 9 9 8 7 7 7 3 1 1 1 1 1 2 1 1 2
7 10 10 16 16 16 17 17 12 12 13 13 14 14 14 14 14 14 14 14 15 15 14 13 13 12 12 11 12 11 12 12 12 11 10 9 8 8 9 8 9 4 1 1 2 2 2 2 2

GFSSGP_con_lsi_126.txt.gz
Lid_Strength_Index
1 1 1 3 8 8 10 8 6 7 7 5 5 6 7 6 6 8 1 0 0 0 -0 -0 -0 -0 -1 -1 -1 -1 -1 -1 -1 -1 -1 -1 -1 -1 -1 -1 -1 -1 -1 -1 -1 -1 -1 -1 -1
2 2 3 5 8 10 9 7 8 7 6 5 5 5 6 6 3 3 2 0 0 0 -0 -0 -0 -0 -0 -0 -0 -1 -1 -1 -1 -1 -1 -1 -1 -1 -1 -1 -1 -1 -1 -1 -1 -1 -1 -1 -1
2 2 5 6 8 10 9 7 7 6 6 6 6 5 5 5 3 2 1 0 -0 -0 -0 -0 -0 -0 -0 -0 -0 -0 -0 -0 -1 -1 -1 -1 -1 -1 -1 -1 -1 -1 -1 -1 -1 -1 -1 -1 -1
3 4 5 8 9 7 7 6 6 6 5 5 5 6 4 2 2 1 0 0 0 0 -0 1 0 -0 -0 -1 -0 -0 -0 -0 -0 -0 -1 -1 -1 -1 -1 -1 -1 -1 -1 -1 -1 -1 -1 -1 -1
4 5 8 9 8 7 6 5 5 6 5 5 4 6 5 2 1 1 1 0 1 0 -0 -0 1 -0 -0 -1 -1 -0 -0 -0 -0 -0 -0 -1 -1 -1 -1 -0 -1 -1 -1 -1 -1 -1 -1 -1 -1
7 6 11 11 9 7 6 5 5 6 5 5 5 5 4 2 2 2 1 0 -0 0 -0 0 0 -0 -0 -0 -0 -0 -0 -0 -0 -0 -0 -0 -0 -0 -0 -0 -1 -1 -1 -1 -1 -1 -1 -1 -1
8 9 11 10 10 8 7 5 6 6 6 6 4 6 3 2 1 1 1 -0 -0 -0 0 -0 0 -0 -0 0 0 0 0 0 -0 -0 -0 -0 0 0 -0 -0 -1 -0 -1 -1 -1 -1 -1 -1 -0
8 9 12 11 11 10 7 6 6 6 7 5 5 7 6 3 2 2 2 1 0 -0 -0 -0 -0 -0 -0 -1 0 0 0 0 0 0 0 0 0 0 -0 -0 -0 -0 -0 -1 -1 -1 -0 -1 -0
8 12 13 12 11 10 8 9 6 6 8 7 6 7 5 3 4 4 4 3 1 0 0 -0 0 -0 -0 -0 -0 -0 -0 0 0 0 0 1 -0 -0 -0 -0 0 -0 0 -0 -0 -0 -0 -0 -0
10 12 12 10 10 11 10 10 9 10 10 10 8 6 6 5 6 6 6 5 3 1 0 0 0 0 -0 -0 -0 -0 -0 -0 -0 -0 -0 -0 -0 -0 -0 0 0 0 0 -0 -0 -0 -0 0 -0
9 12 10 10 9 9 10 10 9 10 11 9 10 8 7 6 6 7 7 6 5 3 1 0 0 0 0 0 -0 -0 -0 -0 -0 -0 -0 -0 -0 -0 -0 -0 -0 -0 -0 -0 -0 -0 -0 -0 0
11 9 9 9 9 9 10 9 10 9 9 7 7 7 7 7 7 7 7 6 6 4 3 1 0 0 0 -0 0 0 0 0 0 -0 -0 -0 0 0 0 -0 -0 0 -0 0 0 0 0 0 -0
10 9 9 8 9 9 9 10 10 9 8 7 7 7 7 7 6 6 6 6 6 6 4 2 0 1 0 0 0 0 0 0 0 -0 -0 -0 0 0 0 0 -0 -0 -0 0 0 0 0 0 0
8 9 9 8 8 8 9 9 9 8 6 7 7 7 6 6 6 6 5 5 4 4 4 3 2 0 0 1 0 0 0 0 0 -0 -0 -0 0 0 0 0 0 0 -0 0 0 0 1 1 0
8 11 9 8 8 9 8 10 10 7 7 7 7 7 7 6 6 6 5 5 5 5 4 3 2 1 0 1 0 0 0 0 0 0 -0 -0 -0 0 0 0 0 0 0 0 0 0 0 0 0
10 10 12 9 8 8 9 12 8 6 7 7 7 7 6 5 4 4 4 4 3 3 4 3 2 2 1 1 0 0 0 0 0 0 -0 -0 -0 -0 0 0 1 0 0 0 0 1 1 1 1
10 13 11 10 7 8 9 11 8 6 7 7 6 6 6 6 5 5 5 5 4 3 3 3 2 2 1 0 0 0 0 0 0 0 0 0 -0 0 0 0 0 0 0 0 1 1 1 2 1
12 12 11 11 8 8 9 10 8 6 6 6 6 6 5 5 5 5 5 4 5 3 3 3 2 1 0 1 1 1 1 0 0 0 0 0 -0 0 0 0 0 0 1 1 1 1 1 1 1
11 12 12 9 7 9 10 10 9 6 5 7 6 6 6 6 6 6 6 5 4 3 3 3 3 2 2 3 2 2 2 1 1 1 0 0 0 -0 0 0 1 1 1 1 1 1 2 2 1
11 11 11 9 7 9 10 10 8 6 7 7 7 7 7 8 8 7 7 7 6 6 5 4 4 4 3 2 1 1 1 1 1 1 0 0 0 0 0 1 1 1 1 1 1 1 2 2 1
11 10 10 10 9 9 9 10 8 7 7 7 7 8 8 9 9 9 9 9 8 8 7 6 5 5 4 3 1 2 1 1 2 1 1 1 0 0 0 0 1 1 1 1 1 1 2 3 2
12 8 9 10 11 13 8 15 10 8 9 9 9 10 10 10 10 10 10 10 10 9 8 7 6 6 5 3 3 2 2 4 2 2 1 1 0 0 0 0 0 1 1 1 1 1 1 2 3
9 7 9 9 10 11 11 13 12 9 12 11 11 10 10 10 11 11 11 11 11 10 9 8 7 6 5 4 2 3 3 4 2 1 2 1 1 1 0 0 0 1 1 1 1 1 2 2 2
7 8 9 9 10 16 11 13 16 14 13 12 11 11 11 11 12 12 12 12 12 10 10 10 9 7 5 4 3 2 2 4 4 2 2 2 1 1 1 0 1 0 1 1 1 1 1 2 1
8 10 15 16 16 16 10 12 14 11 11 11 12 12 12 12 12 13 13 13 12 12 12 11 10 8 5 5 3 2 2 2 3 2 2 2 2 2 1 1 1 1 1 1 0 1 1 1 2
9 10 14 18 18 16 11 15 15 10 10 11 12 12 13 13 13 13 13 13 13 13 12 12 11 9 6 5 3 4 4 3 4 6 4 2 2 2 1 1 1 1 1 1 1 1 1 1 1
10 12 9 14 13 17 14 14 11 11 12 12 13 13 14 14 13 13 14 14 13 14 15 14 12 9 6 6 6 6 7 6 7 7 5 5 6 5 5 2 1 1 1 1 1 1 1 1 1
8 7 13 13 20 19 14 17 16 15 15 13 14 14 14 14 14 14 14 14 13 14 14 13 12 10 9 7 8 8 10 9 8 8 9 7 8 6 7 6 3 1 1 1 1 1 1 1 1
10 11 11 12 14 19 20 18 13 15 14 15 14 14 14 14 15 14 13 14 13 14 14 14 13 11 10 10 11 12 12 11 11 11 10 10 9 9 9 9 9 9 6 4 2 1 1 2 2
8 9 10 15 15 15 17 17 12 13 13 13 14 14 14 14 14 14 13 14 14 14 14 15 14 12 13 11 12 12 13 12 12 13 12 12 11 11 12 11 11 11 12 11 10 9 4 2 2

GFSSGP_con_lsi_129.txt.gz
Lid_Strength_Index
2 4 5 6 11 13 15 13 11 10 10 9 8 8 9 8 8 11 3 2 1 1 -0 -0 -0 -0 -1 -1 -1 -1 -1 -1 -1 -1 -1 -1 -1 -1 -1 -1 -1 -1 -1 -1 -1 -1 -1 -1 -1
2 3 6 9 13 15 14 10 12 10 8 7 7 7 8 6 4 4 3 2 1 0 0 -0 -0 -0 -1 -0 -0 -0 -1 -1 -1 -1 -1 -1 -1 -1 -1 -1 -1 -1 -1 -1 -1 -1 -1 -1 -1
3 3 9 10 13 14 13 10 11 9 7 8 9 7 7 6 3 3 2 1 1 0 0 -0 -0 -0 -0 -0 -0 -0 -0 -0 -1 -1 -1 -1 -1 -1 -1 -1 -1 -1 -1 -1 -1 -1 -1 -1 -1
6 8 9 12 13 10 10 8 8 9 8 7 8 8 4 3 3 3 1 0 1 0 -0 1 0 -0 -0 -0 -0 -0 -0 -0 -0 -0 -1 -1 -1 -1 -1 -0 -1 -1 -1 -1 -1 -1 -1 -0 -0
7 10 13 13 12 9 8 8 8 9 8 7 7 8 6 4 4 3 2 0 1 1 1 1 1 0 -0 -1 -0 -0 -0 -0 -0 -0 -0 -1 -1 -1 -1 -0 -0 -1 -1 -1 -1 -1 -1 -0 -0
11 11 15 16 13 10 9 8 8 8 8 7 8 7 5 3 4 4 4 3 0 1 1 1 1 1 -0 -0 -0 0 0 0 -0 -0 -0 -0 -0 -0 -0 -0 -0 -0 -1 -1 -1 -1 -1 -1 -0
13 14 16 14 12 11 9 8 8 8 8 9 8 9 6 5 5 5 5 5 3 1 1 1 1 1 0 0 0 1 0 0 0 0 0 0 0 0 -0 -0 -0 -0 -0 -0 -1 -0 -0 -0 -0
13 14 16 15 14 13 10 8 8 9 8 7 8 9 10 7 6 6 6 6 5 1 1 1 1 1 1 0 0 0 1 0 0 0 0 1 1 0 0 0 -0 -0 -0 -0 -0 -0 -0 -0 -0
12 17 18 16 15 14 11 11 9 9 10 9 9 9 8 7 7 8 8 8 7 4 4 1 1 1 1 0 -0 0 -0 0 1 0 1 1 -0 0 -0 0 0 0 0 -0 -0 -0 -0 -0 -0
13 17 15 12 13 13 11 11 11 12 11 11 10 8 8 8 8 9 9 9 9 8 6 1 1 1 1 0 0 0 -0 0 0 0 0 0 0 -0 -0 0 1 0 0 0 0 -0 0 0 0
13 15 12 11 10 11 12 12 11 12 13 11 11 9 8 8 8 9 9 9 9 8 7 6 1 0 1 0 1 1 0 -0 0 0 0 0 -0 -0 -0 1 0 0 0 0 0 -0 -0 -0 0
14 12 11 11 10 12 13 11 11 11 11 9 9 8 8 9 9 9 9 8 8 8 7 6 5 1 0 1 1 0 1 1 0 0 1 0 1 1 1 1 1 1 0 1 1 0 0 0 1
13 12 10 10 10 11 10 11 11 10 9 8 8 8 9 9 9 8 7 7 7 7 6 6 6 4 0 0 1 1 0 1 1 0 0 0 1 1 1 1 1 0 0 1 1 0 -0 0 1
10 11 11 11 11 11 11 11 12 9 8 9 9 10 10 8 7 7 7 7 6 6 5 4 3 5 1 1 0 1 1 1 1 0 0 0 0 1 1 1 0 0 0 0 1 0 0 1 1
10 13 12 11 11 11 10 13 12 9 9 9 10 9 7 7 7 8 8 8 7 7 6 5 4 3 4 1 0 0 1 -0 1 1 0 0 1 1 1 1 1 1 1 1 1 1 1 1 1
13 13 16 11 11 10 12 15 11 9 9 10 9 8 8 8 8 8 8 8 8 8 7 6 5 4 3 3 0 0 0 0 0 1 0 0 0 1 1 1 1 1 1 1 1 2 2 1 1
14 17 15 13 11 11 12 14 11 9 9 9 10 9 9 9 9 8 8 8 8 8 8 8 7 6 5 5 2 0 0 0 0 0 0 1 0 0 1 1 1 1 1 2 1 2 2 2 1
16 16 17 16 13 11 12 13 10 9 9 10 10 10 10 10 9 7 7 7 7 8 7 7 7 6 6 5 5 2 1 1 0 0 0 1 0 0 1 1 1 1 1 1 1 2 2 2 2
13 14 16 15 11 11 12 13 11 11 10 11 11 11 10 10 9 8 8 8 8 8 8 8 8 7 6 7 6 5 3 1 1 1 0 1 0 0 1 1 2 1 2 1 1 2 2 2 2
13 14 15 13 10 11 13 13 11 9 10 11 12 11 11 11 10 10 9 9 10 10 10 9 9 8 7 6 6 5 5 1 2 0 0 0 0 0 1 1 1 1 1 2 2 2 3 2 2
13 14 14 13 12 11 11 13 11 10 10 9 10 11 11 12 12 11 11 11 11 12 11 10 10 9 8 7 6 5 4 3 2 1 1 1 0 0 0 1 1 2 1 2 1 2 2 3 3
15 11 11 11 13 16 11 18 12 11 12 11 12 12 13 12 12 11 12 12 13 12 12 11 11 11 9 8 7 6 6 5 3 2 2 1 0 0 0 1 1 1 2 2 2 2 2 2 3
13 10 11 11 12 14 13 15 14 11 13 13 13 13 13 13 12 12 13 13 13 13 12 11 11 11 10 8 7 6 5 4 3 3 3 4 1 0 1 1 1 1 1 2 2 2 1 1 2
9 10 11 10 12 18 13 13 16 16 14 13 13 13 13 13 12 12 13 13 13 13 13 12 12 11 10 8 7 6 5 5 4 3 2 4 3 1 1 1 1 1 1 1 1 1 1 1 1
10 13 18 19 19 19 12 15 17 13 12 13 14 14 13 13 13 14 14 14 14 13 13 12 12 12 11 9 7 6 5 3 3 3 2 3 5 4 1 1 1 1 1 1 2 1 1 1 2
11 11 17 21 21 19 12 17 16 12 12 13 13 13 13 13 14 14 15 14 14 13 13 13 13 13 11 9 8 6 4 3 2 2 2 2 5 6 1 1 1 1 1 1 1 1 1 1 1
10 13 10 15 14 19 17 14 12 12 13 13 14 14 14 14 14 15 15 14 14 13 14 14 13 13 12 10 7 6 5 4 2 3 4 3 6 5 5 1 1 1 1 1 1 1 1 1 1
9 8 15 15 21 22 18 18 19 17 15 14 15 15 14 14 15 15 15 14 13 13 14 14 13 13 13 11 8 6 6 7 7 7 8 6 6 6 7 9 6 3 2 1 1 1 1 1 1
10 12 12 13 15 20 24 18 13 16 17 16 15 14 14 15 16 16 15 15 13 14 14 14 14 14 14 12 10 8 9 9 9 10 11 10 9 10 11 11 11 11 10 9 7 5 3 2 2
9 10 11 17 17 16 17 19 11 13 14 14 14 14 16 15 16 15 15 14 14 14 14 14 14 15 14 14 13 10 10 11 12 13 12 12 12 12 12 12 13 13 12 11 10 9 8 7 7

GFSSGP_con_lsi_132.txt.gz
Lid_Strength_Index
2 4 6 7 12 14 16 13 12 11 11 10 8 8 9 8 8 12 3 2 0 0 -0 -0 -0 -0 -1 -1 -1 -1 -1 -1 -1 -1 -1 -1 -1 -1 -1 -1 -1 -1 -1 -1 -1 -1 -1 -1 -1
3 4 7 10 14 16 14 12 12 11 9 8 7 8 6 8 4 4 3 3 0 0 0 -0 -0 -0 -1 -0 -0 -1 -1 -1 -1 -1 -1 -1 -1 -1 -1 -1 -1 -1 -1 -1 -1 -1 -1 -1 -1
5 5 10 12 14 15 14 11 10 9 8 8 9 6 6 7 5 3 2 2 0 1 0 0 0 -0 -0 -0 -0 -0 -0 -1 -1 -1 -1 -1 -1 -1 -1 -1 -0 -1 -1 -1 -1 -1 -1 -1 -1
7 9 10 13 14 12 11 10 10 10 8 7 7 7 5 5 4 4 1 1 1 0 0 1 1 -0 -0 -0 -0 -0 -0 -0 -0 -0 -1 -1 -1 -1 -1 -1 -1 -1 -1 -1 -1 -1 -1 -1 -0
8 12 15 15 15 11 11 10 10 10 9 8 6 8 7 4 4 5 5 1 1 1 1 1 1 1 -0 -1 -0 -0 -0 -0 -0 -0 -0 -1 -1 -1 -1 -0 -1 -1 -1 -1 -1 -1 -1 -1 -0
12 13 17 17 15 12 11 10 10 9 10 9 8 7 7 6 7 7 6 6 4 1 1 1 0 1 1 -0 -0 0 0 0 -0 -0 -0 -1 -0 -0 -0 -0 -0 -0 -0 -1 -1 -1 -1 -0 -0
14 15 17 16 15 14 12 9 10 9 10 10 9 9 8 8 7 7 7 7 5 0 1 1 1 1 1 1 0 1 1 0 0 0 0 0 0 0 -0 -0 -0 -0 -0 -0 -1 -0 -0 -0 -0
13 15 18 18 16 16 12 11 11 11 11 8 9 11 11 10 8 8 7 7 7 6 1 0 2 1 1 1 1 1 1 1 1 0 1 1 1 0 0 0 -0 -0 -0 -0 -0 -0 -0 -0 -0
13 17 18 17 16 15 13 13 10 10 11 9 10 9 9 8 8 10 10 9 8 7 7 0 0 2 2 1 1 0 -0 0 1 0 1 1 0 0 0 0 0 0 0 -0 -0 -0 0 0 0
14 17 16 13 14 14 12 12 11 12 12 12 10 9 8 8 9 10 10 9 9 8 8 7 3 0 0 -0 1 1 0 0 -0 -0 -0 0 1 0 -0 0 1 1 1 0 0 0 0 0 0
15 15 14 12 12 12 14 13 11 13 13 11 11 10 9 9 9 8 8 8 8 6 6 5 5 4 0 0 0 1 1 1 0 0 -0 0 1 1 0 0 0 0 0 0 1 0 -0 0 1
15 12 12 12 12 13 13 12 12 13 11 9 9 9 9 9 8 8 8 8 8 7 7 6 5 5 5 4 -0 0 1 1 1 -0 0 0 1 1 1 1 1 1 0 1 1 0 0 1 0
14 12 11 11 11 12 11 12 12 11 9 9 9 9 9 9 9 8 8 8 8 8 7 7 6 5 5 5 4 -0 0 0 1 1 0 -0 0 1 1 1 1 1 1 1 1 1 1 1 1
12 12 12 12 11 12 12 12 12 10 9 10 9 9 9 9 9 9 9 9 9 8 9 8 7 6 6 5 5 4 -0 0 0 0 0 -0 0 1 1 1 1 1 1 1 1 1 1 1 1
11 13 12 12 12 12 11 14 13 10 10 10 10 10 10 10 10 10 10 10 10 10 9 9 8 7 7 6 5 5 3 -0 0 0 -0 0 0 1 1 1 1 1 1 1 1 1 1 1 1
13 13 16 12 12 12 12 16 12 11 11 11 11 11 10 10 10 10 10 10 10 10 10 9 9 9 8 8 7 5 4 2 0 -0 0 -0 -0 0 1 1 1 1 1 1 1 1 1 1 1
15 17 16 14 12 12 14 15 12 11 10 12 12 12 11 11 11 10 10 10 10 10 10 10 9 9 8 8 7 7 5 4 -0 -0 0 -0 -0 0 0 1 1 1 1 1 1 1 1 2 2
17 16 17 16 14 13 15 15 13 11 12 13 13 12 12 12 12 10 10 10 10 10 9 9 9 8 8 8 7 7 6 5 4 1 0 0 0 -0 0 1 1 1 1 2 1 2 2 2 2
13 14 16 15 12 13 14 15 14 13 13 13 13 13 13 13 11 10 10 10 11 11 11 10 10 9 9 9 9 8 8 7 6 2 1 0 0 0 0 1 1 1 1 1 2 2 2 3 3
13 14 15 13 11 12 15 15 13 12 12 13 13 13 13 13 12 11 11 11 12 12 11 11 11 11 11 10 10 9 8 7 6 5 2 0 2 0 0 1 1 1 1 1 2 2 3 3 2
13 14 15 14 13 12 13 15 14 12 11 12 12 12 13 13 13 12 12 12 12 13 12 12 12 12 11 11 10 9 8 6 6 4 2 1 1 1 0 0 1 1 1 2 2 2 2 3 3
14 11 12 12 14 18 13 20 15 13 13 13 13 14 14 14 13 13 13 13 13 13 13 12 12 11 11 10 10 11 10 9 6 5 3 3 2 3 1 0 1 1 1 2 2 2 2 2 3
13 10 12 13 15 16 14 17 16 12 14 14 14 14 14 14 13 13 13 13 13 13 13 12 12 11 11 11 10 10 9 8 6 5 4 4 3 2 3 3 0 1 1 1 2 2 2 1 2
10 12 12 13 14 19 14 15 17 16 15 15 14 14 14 14 13 14 13 13 13 13 12 12 12 12 11 10 10 10 9 8 7 6 5 4 3 2 2 3 4 1 1 1 2 2 2 2 2
11 14 19 19 19 19 12 15 17 14 14 14 15 14 14 14 14 14 15 14 14 13 13 13 13 13 12 11 11 10 9 7 6 5 4 3 3 2 1 3 4 3 1 1 1 1 1 2 2
12 13 18 21 21 19 12 17 17 13 12 13 13 14 13 14 14 15 15 14 14 13 13 13 13 13 13 12 12 10 8 7 6 4 3 3 2 2 2 4 6 1 1 1 1 2 1 2 2
11 13 10 15 15 18 16 15 13 13 13 13 14 14 14 14 14 15 15 15 14 14 13 13 14 13 13 12 12 11 9 8 7 5 3 2 2 2 4 4 6 4 1 1 1 1 2 2 1
10 9 15 15 21 22 18 17 18 15 16 14 14 15 15 15 15 15 15 15 14 13 13 13 13 14 13 13 13 10 9 9 8 7 6 6 4 5 7 6 7 9 2 1 1 1 1 1 1
11 12 12 13 15 20 21 18 13 14 17 16 14 14 18 17 16 15 15 15 14 14 13 13 14 14 14 13 13 11 10 9 8 8 9 9 9 8 9 10 10 10 9 6 3 3 2 2 2
9 11 11 17 17 16 18 19 12 13 13 13 14 15 18 16 16 15 16 15 15 14 14 14 14 14 14 14 13 11 12 12 10 10 10 10 12 11 10 11 12 12 11 11 10 9 8 8 8

GFSSGP_con_lsi_135.txt.gz
Lid_Strength_Index
2 5 7 8 12 14 15 14 13 11 11 11 6 7 8 7 9 12 4 4 0 0 -0 -0 -0 -0 -0 -1 -1 -1 -1 -1 -1 -1 -1 -1 -1 -1 -1 -1 -1 -1 -1 -1 -1 -1 -1 -1 -1
3 5 8 11 14 16 15 12 11 10 10 8 7 8 7 8 5 4 5 3 1 1 0 -0 -0 -0 -0 -0 -0 -1 -1 -1 -1 -1 -1 -1 -1 -1 -1 -1 -0 -1 -1 -1 -1 -1 -1 -1 -1
6 6 10 13 16 16 14 12 11 9 8 9 8 7 7 7 5 4 7 1 0 1 0 0 -0 -0 -0 -0 -0 -0 -0 -1 -1 -1 -1 -1 -1 -1 -1 -0 -0 -1 -1 -1 -1 -1 -1 -1 -1
7 9 11 14 15 14 13 11 11 10 8 7 7 9 7 5 5 5 8 1 1 1 0 1 1 0 -0 -0 -0 -0 -0 -0 -0 -0 -1 -1 -1 -1 -1 -0 -0 -1 -1 -1 -1 -1 -1 -1 -0
10 12 15 16 15 13 13 11 11 11 10 8 7 9 8 6 5 5 6 6 1 1 1 1 1 1 -0 -1 -1 -0 -0 -0 -0 -0 -0 -1 -1 -1 -1 -0 -0 -1 -1 -1 -1 -1 -1 -1 -0
13 14 17 18 16 13 13 12 12 11 11 10 7 9 10 7 8 8 6 7 2 1 1 1 0 0 0 -0 -0 0 0 -0 -0 -0 -0 -0 -0 -0 -0 -0 -0 -0 -0 -0 -1 -0 -1 -0 -0
14 16 18 17 16 15 13 11 11 11 11 11 11 9 10 10 9 8 8 8 7 3 3 0 1 1 1 1 1 1 0 0 0 -0 -0 -0 0 0 -0 -0 -0 -0 -0 -0 -0 -0 -0 -0 -0
14 15 18 18 17 17 13 12 12 12 12 9 11 13 13 11 9 9 9 9 8 7 6 5 3 -1 0 1 1 1 1 1 1 0 0 1 1 0 0 0 -0 -0 -0 -0 -0 -0 -0 -0 -0
14 17 18 17 16 16 14 14 12 11 12 10 11 10 9 8 9 8 9 8 7 6 6 6 5 5 4 -1 -0 0 -0 0 1 0 1 1 0 0 0 0 0 -0 0 -0 -0 -0 0 0 0
15 17 16 14 14 15 13 13 12 13 13 13 11 9 8 8 8 9 9 9 9 8 7 7 6 5 5 5 3 -1 -0 -0 0 -0 -0 1 0 0 -0 0 1 0 0 0 0 0 0 0 1
16 16 14 13 13 12 14 14 13 14 14 12 12 11 9 8 9 9 9 9 9 8 8 8 7 6 6 6 5 4 -0 -0 -0 -0 -0 1 1 1 0 0 0 0 0 0 1 1 0 0 1
15 13 14 13 12 13 14 13 12 13 11 10 10 9 9 10 10 10 10 10 10 9 9 9 8 8 7 6 6 5 5 1 -0 -0 -0 1 0 1 1 1 0 0 0 0 1 1 0 1 1
15 13 12 12 12 12 11 13 13 11 10 9 9 10 11 11 11 10 10 10 10 10 10 9 9 8 8 8 7 6 6 5 2 -0 -0 -0 0 1 1 1 1 0 0 1 1 1 1 1 1
12 12 13 12 12 12 12 13 13 11 9 10 11 12 12 11 11 11 11 11 11 10 10 10 9 9 9 9 8 8 7 5 4 2 -0 -0 -0 0 1 1 1 1 1 1 1 2 1 1 1
12 14 13 13 13 13 12 15 13 11 10 12 12 12 12 12 12 12 11 12 12 12 11 11 10 10 10 10 9 9 8 6 5 3 1 -0 -0 0 0 0 1 1 1 1 1 1 2 2 1
14 14 16 13 12 12 13 15 13 11 11 13 13 12 12 12 12 12 12 12 12 12 12 11 11 11 11 10 10 9 8 7 6 5 1 -0 -0 -0 0 0 1 1 1 1 1 2 2 2 2
15 18 16 14 12 13 14 16 13 11 12 13 14 14 13 13 12 12 12 12 12 13 13 12 12 12 11 11 10 10 9 8 7 5 4 3 0 -0 0 0 0 0 1 1 1 2 2 2 2
17 17 17 17 14 14 15 15 14 13 13 14 15 14 14 14 13 12 12 12 12 13 12 12 12 11 10 10 10 9 9 8 7 7 6 4 2 2 0 0 0 0 1 1 1 2 2 2 2
15 16 16 15 13 14 14 16 15 14 14 15 15 15 15 14 12 12 12 12 12 12 12 12 12 11 11 11 11 11 11 10 8 7 6 5 4 1 1 1 1 1 1 1 1 2 3 3 2
14 15 15 14 12 13 14 16 15 13 14 15 15 15 14 14 13 12 12 12 13 12 12 12 11 11 11 11 11 11 11 10 8 7 6 6 4 0 0 1 1 1 1 1 2 2 2 2 2
13 15 15 14 13 12 14 16 15 14 13 13 13 14 14 14 14 13 13 13 13 13 13 12 12 12 11 11 10 10 10 10 10 8 6 4 2 2 1 1 1 1 1 2 1 1 2 3 3
15 11 12 13 14 18 14 20 15 15 15 14 14 14 14 14 14 14 14 14 14 13 12 12 12 12 11 10 11 11 11 12 10 9 7 5 3 3 2 2 0 1 1 1 1 1 2 2 3
13 10 12 13 15 16 16 19 18 14 15 14 14 14 15 14 14 14 14 14 13 13 12 12 12 12 11 11 11 11 11 10 9 9 8 7 5 4 3 2 1 3 3 1 1 1 2 2 2
10 11 12 13 15 20 16 16 18 17 15 14 14 14 14 14 14 14 14 14 14 12 12 13 13 12 12 12 11 12 11 11 10 8 8 7 6 4 2 1 1 1 4 2 1 1 1 2 2
11 14 18 19 20 19 14 17 18 15 14 14 15 15 14 14 14 15 15 15 13 13 13 13 13 13 13 12 12 12 11 10 10 8 7 6 5 4 3 1 1 1 2 3 2 1 1 2 2
12 13 17 21 21 19 14 17 17 13 12 13 13 12 13 15 15 15 15 15 14 13 13 13 13 13 13 13 13 12 11 11 10 9 7 5 4 3 2 1 3 1 1 2 2 2 1 1 2
12 14 11 14 15 19 17 15 14 13 13 13 14 13 15 16 16 16 16 15 14 14 14 14 13 13 13 12 12 12 12 11 10 9 8 6 3 2 1 3 4 3 1 3 3 2 3 1 1
9 9 15 15 21 21 18 18 18 15 15 14 17 14 17 16 16 16 16 15 14 14 13 13 13 13 13 13 13 12 12 11 10 9 10 8 6 4 4 6 7 7 4 3 3 2 2 2 2
12 12 12 13 15 20 22 18 13 15 17 17 16 14 19 18 18 17 16 16 15 14 14 14 14 14 13 13 13 13 13 12 11 9 11 10 8 8 7 7 8 8 8 8 2 2 2 2 2
10 12 12 17 17 16 19 18 13 14 15 14 14 17 19 19 19 19 18 17 15 14 14 15 14 14 14 14 14 13 14 13 13 11 12 11 10 9 9 9 10 10 11 12 12 10 9 9 10